Location: Laterina
(43.5167°N, 11.7167°E)
Time: 16:09:17
(UTC+00:00)

TSX-5 - Pass Details

Date: 24 September 2020
Orbit: 400 x 1330 km, 68.9° (Epoch: 25 October)

Event Time Altitude Azimuth Distance (km) Brightness Sun altitude
Rises 19:02:31 0° 213° (SSW) 2,496 7.3 -21.5°
Reaches altitude 10° 19:04:25 10° 215° (SW) 1,706 6.5 -21.8°
Maximum altitude 19:08:09 70° 300° (WNW) 621 4.1 -22.5°
Drops below altitude 10° 19:12:58 10° 25° (NNE) 2,186 6.8 -23.3°
Sets 19:15:41 0° 27° (NNE) 3,278 7.7 -23.7°
